| time (UTC) | temp C | wind direction | speed KPH | gust KPH | rain 1hr cm | rain 24hr cm | rain mn cm | humidity % | barometer mb |
| 20260505034618 | 16 | 292 | 3.2 | 6.4 | 0.00 | 0.00 | 0.00 | 23 | 1014.3 |
| 20260505034051 | 16 | 275 | 3.2 | 14.5 | 0.00 | 0.00 | 0.00 | 23 | 1014.3 |
| 20260505033543 | 16 | 284 | 8.0 | 16.1 | 0.00 | 0.00 | 0.00 | 23 | 1014.4 |
| 20260505033053 | 16 | 297 | 6.4 | 20.9 | 0.00 | 0.00 | 0.00 | 24 | 1014.3 |
| 20260505032553 | 16 | 271 | 3.2 | 9.7 | 0.00 | 0.00 | 0.00 | 24 | 1014.2 |
| 20260505032106 | 16 | 271 | 1.6 | 4.8 | 0.00 | 0.00 | 0.00 | 24 | 1014.1 |
| 20260505031555 | 16 | 259 | 1.6 | 4.8 | 0.00 | 0.00 | 0.00 | 24 | 1014.0 |
| 20260505031058 | 16 | 248 | 0.0 | 12.9 | 0.00 | 0.00 | 0.00 | 25 | 1013.8 |
| 20260505030551 | 16 | 268 | 1.6 | 12.9 | 0.00 | 0.00 | 0.00 | 24 | 1013.9 |
| 20260505030055 | 16 | 258 | 0.0 | 4.8 | 0.00 | 0.00 | 0.00 | 25 | 1013.8 |
| 20260505025546 | 16 | 255 | 1.6 | 4.8 | 0.00 | 0.00 | 0.00 | 24 | 1013.8 |
| 20260505025037 | 16 | 287 | 1.6 | 4.8 | 0.00 | 0.00 | 0.00 | 24 | 1013.8 |
| 20260505024544 | 16 | 234 | 0.0 | 4.8 | 0.00 | 0.00 | 0.00 | 24 | 1013.7 |
| 20260505024035 | 16 | 234 | 0.0 | 4.8 | 0.00 | 0.00 | 0.00 | 24 | 1013.8 |
| 20260505023541 | 17 | 199 | 1.6 | 4.8 | 0.00 | 0.00 | 0.00 | 24 | 1013.8 |
| 20260505023049 | 17 | 261 | 0.0 | 3.2 | 0.00 | 0.00 | 0.00 | 23 | 1013.6 |
| 20260505022555 | 17 | 261 | 0.0 | 3.2 | 0.00 | 0.00 | 0.00 | 23 | 1013.6 |
| 20260505022046 | 17 | 257 | 0.0 | 3.2 | 0.00 | 0.00 | 0.00 | 23 | 1013.5 |
| 20260505021554 | 17 | 257 | 0.0 | 4.8 | 0.00 | 0.00 | 0.00 | 23 | 1013.6 |
| 20260505021059 | 17 | 257 | 0.0 | 4.8 | 0.00 | 0.00 | 0.00 | 23 | 1013.6 |
| 20260505020502 | 17 | 263 | 0.0 | 3.2 | 0.00 | 0.00 | 0.00 | 23 | 1013.5 |
| 20260505020105 | 17 | 266 | 0.0 | 4.8 | 0.00 | 0.00 | 0.00 | 23 | 1013.4 |
| 20260505015554 | 18 | 261 | 1.6 | 4.8 | 0.00 | 0.00 | 0.00 | 22 | 1013.5 |
| 20260505015100 | 18 | 284 | 0.0 | 3.2 | 0.00 | 0.00 | 0.00 | 23 | 1013.4 |
| 20260505014504 | 18 | 279 | 0.0 | 4.8 | 0.00 | 0.00 | 0.00 | 23 | 1013.4 |
| 20260505014058 | 18 | 309 | 0.0 | 4.8 | 0.00 | 0.00 | 0.00 | 23 | 1013.4 |
| 20260505013502 | 18 | 273 | 0.0 | 4.8 | 0.00 | 0.00 | 0.00 | 23 | 1013.3 |
| 20260505013101 | 18 | 277 | 0.0 | 11.3 | 0.00 | 0.00 | 0.00 | 22 | 1013.5 |
| 20260505012603 | 18 | 311 | 4.8 | 11.3 | 0.00 | 0.00 | 0.00 | 22 | 1013.5 |
| 20260505012053 | 18 | 297 | 1.6 | 9.7 | 0.00 | 0.00 | 0.00 | 22 | 1013.4 |
| 20260505011603 | 18 | 267 | 4.8 | 9.7 | 0.00 | 0.00 | 0.00 | 22 | 1013.4 |
| 20260505011051 | 18 | 269 | 3.2 | 8.0 | 0.00 | 0.00 | 0.00 | 22 | 1013.5 |
| 20260505010558 | 18 | 273 | 4.8 | 6.4 | 0.00 | 0.00 | 0.00 | 22 | 1013.5 |
| 20260505010105 | 18 | 296 | 1.6 | 6.4 | 0.00 | 0.00 | 0.00 | 22 | 1013.5 |
| 20260505005557 | 18 | 284 | 1.6 | 6.4 | 0.00 | 0.00 | 0.00 | 22 | 1013.5 |
| 20260505005104 | 18 | 227 | 3.2 | 11.3 | 0.00 | 0.00 | 0.00 | 22 | 1013.7 |
| 20260505004604 | 19 | 296 | 4.8 | 11.3 | 0.00 | 0.00 | 0.00 | 22 | 1013.7 |
| 20260505004059 | 19 | 289 | 3.2 | 11.3 | 0.00 | 0.00 | 0.00 | 22 | 1013.6 |
| 20260505003605 | 19 | 219 | 3.2 | 11.3 | 0.00 | 0.00 | 0.00 | 22 | 1013.9 |
| 20260505003008 | 19 | 297 | 4.8 | 12.9 | 0.00 | 0.00 | 0.00 | 22 | 1013.7 |
| 20260505002604 | 19 | 293 | 6.4 | 12.9 | 0.00 | 0.00 | 0.00 | 22 | 1013.9 |
| 20260505002007 | 19 | 317 | 6.4 | 9.7 | 0.00 | 0.00 | 0.00 | 22 | 1013.9 |
| 20260505001629 | 19 | 315 | 6.4 | 9.7 | 0.00 | 0.00 | 0.00 | 22 | 1014.0 |
| 20260505001003 | 19 | 311 | 3.2 | 16.1 | 0.00 | 0.00 | 0.00 | 21 | 1014.1 |
| 20260505000557 | 19 | 281 | 4.8 | 16.1 | 0.00 | 0.00 | 0.00 | 21 | 1014.1 |
| 20260505000104 | 19 | 300 | 9.7 | 16.1 | 0.00 | 0.00 | 0.00 | 21 | 1014.1 |
| 20260504235556 | 19 | 284 | 1.6 | 16.1 | 0.00 | 0.00 | 0.00 | 22 | 1014.0 |
| 20260504235049 | 19 | 292 | 8.0 | 16.1 | 0.00 | 0.00 | 0.00 | 22 | 1014.0 |
| 20260504234556 | 20 | 306 | 6.4 | 12.9 | 0.00 | 0.00 | 0.00 | 22 | 1014.1 |
| 20260504234044 | 20 | 309 | 3.2 | 12.9 | 0.00 | 0.00 | 0.00 | 22 | 1014.1 |
| 20260504233534 | 20 | 310 | 4.8 | 12.9 | 0.00 | 0.00 | 0.00 | 22 | 1014.1 |
| 20260504233055 | 20 | 293 | 3.2 | 16.1 | 0.00 | 0.00 | 0.00 | 21 | 1014.2 |
| 20260504232546 | 20 | 355 | 11.3 | 16.1 | 0.00 | 0.00 | 0.00 | 22 | 1014.2 |
| 20260504232054 | 20 | 325 | 4.8 | 17.7 | 0.00 | 0.00 | 0.00 | 21 | 1014.1 |
| 20260504231600 | 20 | 302 | 8.0 | 17.7 | 0.00 | 0.00 | 0.00 | 22 | 1014.2 |
| 20260504231002 | 20 | 324 | 4.8 | 12.9 | 0.00 | 0.00 | 0.00 | 21 | 1014.3 |
| 20260504230509 | 20 | 336 | 4.8 | 12.9 | 0.00 | 0.00 | 0.00 | 21 | 1014.3 |
| 20260504230101 | 20 | 315 | 0.0 | 14.5 | 0.00 | 0.00 | 0.00 | 22 | 1014.3 |
| 20260504225556 | 20 | 305 | 1.6 | 14.5 | 0.00 | 0.00 | 0.00 | 22 | 1014.4 |
| 20260504225100 | 20 | 305 | 8.0 | 19.3 | 0.00 | 0.00 | 0.00 | 21 | 1014.4 |
| 20260504224505 | 20 | 330 | 11.3 | 19.3 | 0.00 | 0.00 | 0.00 | 22 | 1014.3 |
| 20260504224010 | 20 | 290 | 9.7 | 19.3 | 0.00 | 0.00 | 0.00 | 22 | 1014.3 |
| 20260504223605 | 20 | 278 | 12.9 | 19.3 | 0.00 | 0.00 | 0.00 | 22 | 1014.3 |
| 20260504223007 | 20 | 321 | 3.2 | 16.1 | 0.00 | 0.00 | 0.00 | 21 | 1014.3 |
| 20260504222604 | 20 | 288 | 3.2 | 16.1 | 0.00 | 0.00 | 0.00 | 21 | 1014.5 |
| 20260504222003 | 20 | 294 | 6.4 | 16.1 | 0.00 | 0.00 | 0.00 | 21 | 1014.5 |
| 20260504221559 | 19 | 272 | 8.0 | 24.1 | 0.00 | 0.00 | 0.00 | 21 | 1014.4 |
| 20260504221106 | 20 | 251 | 8.0 | 24.1 | 0.00 | 0.00 | 0.00 | 21 | 1014.6 |
| 20260504220507 | 20 | 309 | 14.5 | 20.9 | 0.00 | 0.00 | 0.00 | 21 | 1014.6 |
| 20260504220105 | 20 | 306 | 6.4 | 16.1 | 0.00 | 0.00 | 0.00 | 21 | 1014.8 |
| 20260504215556 | 20 | 277 | 6.4 | 17.7 | 0.00 | 0.00 | 0.00 | 21 | 1014.8 |
| 20260504215102 | 20 | 269 | 11.3 | 19.3 | 0.00 | 0.00 | 0.00 | 21 | 1014.9 |
| 20260504214507 | 20 | 329 | 12.9 | 20.9 | 0.00 | 0.00 | 0.00 | 21 | 1014.9 |
| 20260504214059 | 20 | 303 | 12.9 | 20.9 | 0.00 | 0.00 | 0.00 | 21 | 1014.9 |
| 20260504213503 | 20 | 316 | 4.8 | 16.1 | 0.00 | 0.00 | 0.00 | 21 | 1014.9 |
| 20260504213058 | 20 | 203 | 3.2 | 16.1 | 0.00 | 0.00 | 0.00 | 21 | 1015.1 |
| 20260504212604 | 20 | 243 | 3.2 | 19.3 | 0.00 | 0.00 | 0.00 | 21 | 1015.0 |
| 20260504212057 | 20 | 292 | 12.9 | 19.3 | 0.00 | 0.00 | 0.00 | 22 | 1015.0 |
| 20260504211546 | 20 | 317 | 8.0 | 19.3 | 0.00 | 0.00 | 0.00 | 22 | 1015.4 |
| 20260504211053 | 20 | 325 | 9.7 | 19.3 | 0.00 | 0.00 | 0.00 | 21 | 1015.4 |
| 20260504210545 | 20 | 309 | 11.3 | 22.5 | 0.00 | 0.00 | 0.00 | 22 | 1015.5 |
| 20260504210052 | 20 | 302 | 9.7 | 22.5 | 0.00 | 0.00 | 0.00 | 21 | 1015.6 |
| 20260504205556 | 21 | 293 | 4.8 | 12.9 | 0.00 | 0.00 | 0.00 | 21 | 1015.6 |
| 20260504205104 | 21 | 252 | 4.8 | 12.9 | 0.00 | 0.00 | 0.00 | 21 | 1015.5 |
| 20260504204502 | 21 | 225 | 4.8 | 17.7 | 0.00 | 0.00 | 0.00 | 21 | 1015.9 |
| 20260504204010 | 21 | 227 | 9.7 | 17.7 | 0.00 | 0.00 | 0.00 | 21 | 1015.9 |
| 20260504203502 | 21 | 199 | 1.6 | 16.1 | 0.00 | 0.00 | 0.00 | 22 | 1016.0 |
| 20260504203009 | 20 | 207 | 9.7 | 16.1 | 0.00 | 0.00 | 0.00 | 22 | 1015.9 |
| 20260504202605 | 20 | 238 | 8.0 | 16.1 | 0.00 | 0.00 | 0.00 | 22 | 1015.9 |
| 20260504202006 | 20 | 190 | 6.4 | 16.1 | 0.00 | 0.00 | 0.00 | 23 | 1016.1 |
| 20260504201601 | 20 | 202 | 1.6 | 14.5 | 0.00 | 0.00 | 0.00 | 23 | 1016.1 |
| 20260504201053 | 21 | 223 | 8.0 | 19.3 | 0.00 | 0.00 | 0.00 | 22 | 1016.2 |
| 20260504200600 | 21 | 199 | 8.0 | 16.1 | 0.00 | 0.00 | 0.00 | 21 | 1016.1 |
| 20260504200054 | 20 | 311 | 6.4 | 14.5 | 0.00 | 0.00 | 0.00 | 22 | 1016.3 |
| 20260504195557 | 20 | 254 | 3.2 | 17.7 | 0.00 | 0.00 | 0.00 | 23 | 1016.3 |
| 20260504195102 | 20 | 234 | 6.4 | 17.7 | 0.00 | 0.00 | 0.00 | 23 | 1016.4 |
| 20260504194506 | 20 | 273 | 4.8 | 17.7 | 0.00 | 0.00 | 0.00 | 24 | 1016.5 |
| 20260504194101 | 19 | 208 | 8.0 | 17.7 | 0.00 | 0.00 | 0.00 | 24 | 1016.4 |
| 20260504193506 | 19 | 270 | 8.0 | 17.7 | 0.00 | 0.00 | 0.00 | 26 | 1016.4 |
| 20260504193109 | 19 | 298 | 9.7 | 19.3 | 0.00 | 0.00 | 0.00 | 25 | 1016.5 |
| 20260504192551 | 19 | 226 | 6.4 | 19.3 | 0.00 | 0.00 | 0.00 | 26 | 1016.5 |
| 20260504192058 | 19 | 219 | 8.0 | 16.1 | 0.00 | 0.00 | 0.00 | 25 | 1016.4 |
| 20260504191615 | 19 | 285 | 3.2 | 17.7 | 0.00 | 0.00 | 0.00 | 26 | 1016.4 |
| 20260504191007 | 19 | 280 | 8.0 | 19.3 | 0.00 | 0.00 | 0.00 | 26 | 1016.5 |
| 20260504190604 | 19 | 267 | 6.4 | 17.7 | 0.00 | 0.00 | 0.00 | 26 | 1016.4 |
| 20260504190006 | 18 | 259 | 6.4 | 16.1 | 0.00 | 0.00 | 0.00 | 27 | 1016.6 |
| 20260504185600 | 18 | 188 | 4.8 | 14.5 | 0.00 | 0.00 | 0.00 | 27 | 1016.8 |
| 20260504185002 | 18 | 217 | 6.4 | 14.5 | 0.00 | 0.00 | 0.00 | 28 | 1016.7 |
| 20260504184557 | 18 | 286 | 4.8 | 16.1 | 0.00 | 0.00 | 0.00 | 29 | 1016.8 |
| 20260504184048 | 18 | 281 | 6.4 | 14.5 | 0.00 | 0.00 | 0.00 | 29 | 1016.8 |
| 20260504183557 | 18 | 259 | 4.8 | 12.9 | 0.00 | 0.00 | 0.00 | 30 | 1016.9 |
| 20260504183046 | 17 | 277 | 4.8 | 20.9 | 0.00 | 0.00 | 0.00 | 30 | 1016.9 |
| 20260504182555 | 17 | 284 | 6.4 | 20.9 | 0.00 | 0.00 | 0.00 | 30 | 1016.9 |
| 20260504182103 | 17 | 290 | 8.0 | 19.3 | 0.00 | 0.00 | 0.00 | 29 | 1017.0 |
| 20260504181506 | 17 | 304 | 6.4 | 19.3 | 0.00 | 0.00 | 0.00 | 30 | 1017.1 |
| 20260504181058 | 17 | 249 | 8.0 | 16.1 | 0.00 | 0.00 | 0.00 | 29 | 1017.1 |
| 20260504180607 | 17 | 298 | 8.0 | 22.5 | 0.00 | 0.00 | 0.00 | 29 | 1017.3 |
| 20260504180058 | 17 | 274 | 6.4 | 19.3 | 0.00 | 0.00 | 0.00 | 29 | 1017.3 |
| 20260504175504 | 17 | 241 | 9.7 | 19.3 | 0.00 | 0.00 | 0.00 | 29 | 1017.3 |
| 20260504175057 | 17 | 268 | 6.4 | 17.7 | 0.00 | 0.00 | 0.00 | 30 | 1017.1 |
| 20260504174605 | 17 | 288 | 6.4 | 17.7 | 0.00 | 0.00 | 0.00 | 31 | 1017.2 |
| 20260504174056 | 17 | 202 | 8.0 | 17.7 | 0.00 | 0.00 | 0.00 | 31 | 1017.1 |
| 20260504173550 | 16 | 212 | 3.2 | 12.9 | 0.00 | 0.00 | 0.00 | 32 | 1017.2 |
| 20260504173054 | 16 | 330 | 4.8 | 14.5 | 0.00 | 0.00 | 0.00 | 34 | 1017.2 |
| 20260504172600 | 16 | 275 | 6.4 | 14.5 | 0.00 | 0.00 | 0.00 | 34 | 1017.3 |
| 20260504172004 | 16 | 188 | 6.4 | 14.5 | 0.00 | 0.00 | 0.00 | 34 | 1017.4 |
| 20260504171559 | 16 | 261 | 3.2 | 16.1 | 0.00 | 0.00 | 0.00 | 35 | 1017.3 |
| 20260504171003 | 16 | 281 | 6.4 | 16.1 | 0.00 | 0.00 | 0.00 | 36 | 1017.3 |
| 20260504170508 | 15 | 267 | 6.4 | 17.7 | 0.00 | 0.00 | 0.00 | 37 | 1017.3 |
| 20260504160124 | 13 | 304 | 4.8 | 12.9 | 0.00 | 0.00 | 0.00 | 45 | 1017.4 |
| 20260504151050 | 13 | 294 | 1.6 | 3.2 | 0.00 | 0.00 | 0.00 | 47 | 1017.7 |
| 20260504150539 | 13 | 271 | 0.0 | 3.2 | 0.00 | 0.00 | 0.00 | 46 | 1017.6 |
| 20260504141002 | 11 | 110 | 0.0 | 4.8 | 0.00 | 0.00 | 0.00 | 52 | 1017.4 |
| 20260504140509 | 11 | 116 | 1.6 | 4.8 | 0.00 | 0.00 | 0.00 | 53 | 1017.5 |
| 20260504130534 | 11 | 76 | 6.4 | 16.1 | 0.00 | 0.00 | 0.00 | 55 | 1016.8 |
| 20260504110555 | 12 | 73 | 4.8 | 9.7 | 0.00 | 0.00 | 0.00 | 47 | 1016.5 |
| 20260504100519 | 12 | 32 | 4.8 | 16.1 | 0.00 | 0.00 | 0.00 | 45 | 1016.3 |
| 20260504100104 | 12 | 360 | 6.4 | 16.1 | 0.00 | 0.00 | 0.00 | 45 | 1016.3 |
| 20260504082003 | 13 | 118 | 6.4 | 14.5 | 0.00 | 0.00 | 0.00 | 41 | 1016.2 |
| 20260504081556 | 13 | 103 | 4.8 | 11.3 | 0.00 | 0.00 | 0.00 | 40 | 1016.1 |
| 20260504081104 | 13 | 103 | 3.2 | 8.0 | 0.00 | 0.00 | 0.00 | 40 | 1016.2 |
| 20260504080555 | 13 | 127 | 3.2 | 8.0 | 0.00 | 0.00 | 0.00 | 40 | 1016.2 |
| 20260504050542 | 16 | 286 | 0.0 | 3.2 | 0.00 | 0.00 | 0.00 | 33 | 1017.0 |
| 20260504045543 | 17 | 9 | 1.6 | 4.8 | 0.00 | 0.00 | 0.00 | 32 | 1016.8 |
| 20260504045045 | 17 | 9 | 1.6 | 4.8 | 0.00 | 0.00 | 0.00 | 32 | 1016.7 |
| 20260504044600 | 17 | 309 | 1.6 | 4.8 | 0.00 | 0.00 | 0.00 | 32 | 1016.7 |
| 20260504044059 | 17 | 277 | 1.6 | 4.8 | 0.00 | 0.00 | 0.00 | 32 | 1016.8 |
| 20260504043550 | 17 | 275 | 0.0 | 4.8 | 0.00 | 0.00 | 0.00 | 32 | 1016.8 |
| 20260504043056 | 17 | 229 | 0.0 | 8.0 | 0.00 | 0.00 | 0.00 | 31 | 1016.9 |
| 20260504042606 | 17 | 185 | 0.0 | 12.9 | 0.00 | 0.00 | 0.00 | 31 | 1016.9 |
| 20260504042006 | 17 | 207 | 3.2 | 16.1 | 0.00 | 0.00 | 0.00 | 31 | 1017.2 |
| 20260504041600 | 17 | 189 | 1.6 | 19.3 | 0.00 | 0.00 | 0.00 | 30 | 1017.1 |
| 20260504041002 | 18 | 212 | 9.7 | 19.3 | 0.00 | 0.00 | 0.00 | 29 | 1017.1 |
| 20260504040558 | 18 | 213 | 4.8 | 12.9 | 0.00 | 0.00 | 0.00 | 26 | 1017.0 |
| 20260504040120 | 18 | 238 | 4.8 | 11.3 | 0.00 | 0.00 | 0.00 | 26 | 1017.0 |
| 20260504035559 | 18 | 274 | 3.2 | 14.5 | 0.00 | 0.00 | 0.00 | 25 | 1017.0 |
| 20260504035101 | 18 | 240 | 4.8 | 12.9 | 0.00 | 0.00 | 0.00 | 25 | 1017.0 |